EDRS-C

Last updated on Tue Oct 08 2024 00:02:41 GMT+0000 (Coordinated Universal Time)

1 44475U 19049A 24280.86895145 .00000165 00000+0 00000+0 0 9999 2 44475 0.0875 254.2171 0000720 285.2230 180.5932 1.00270107 19005
UTC large
Height (km)
Speed (km/s)
/
Latitude / Longitude
Inclination (degrees)
Orbital Period (minutes)
Azimuth
Elevation
Range (km)
Doppler Factor

Next 0 passes for location: London (51.5072 / 0.1276)

Sorry there are no passes over London.